Theta_e
311 310 310 310 309 311 314 314 314 314 312 309 310 315 320 318 319 320 316 315 320 322 321 320 320 321 320 319 320 320 319 319 317 316 316 316 316 316 317 317 317 317 317 316 315 316 316 316 314 314 314 314 314 314 316 317 316 315 315 316 317 317 315 314 313 313 314 316 316 315 317 319 318 317 317 318 317 316 316 316 316 315 315 315 315 315 315
311 310 310 310 310 311 314 315 314 315 314 310 310 316 320 318 321 322 318 316 320 321 320 319 319 321 321 321 320 319 319 319 318 317 316 316 316 316 317 316 316 316 315 315 315 315 316 316 314 314 315 314 314 316 318 317 315 316 317 317 317 316 316 314 313 313 314 315 317 317 318 318 318 317 318 318 318 318 318 317 317 316 316 315 316 315 314
310 311 310 310 310 311 313 315 315 314 314 311 311 315 318 318 320 321 319 318 320 320 320 320 320 321 322 323 322 320 320 319 318 318 316 315 316 316 317 315 314 314 314 315 316 315 316 316 315 314 314 314 313 315 317 316 316 318 319 319 317 315 316 315 313 314 314 315 317 318 318 317 317 318 319 318 318 319 318 317 316 316 316 317 317 316 314
310 311 311 310 311 311 312 315 315 314 314 312 310 314 319 319 319 319 318 319 320 319 320 320 321 321 322 322 322 322 321 319 317 317 316 315 315 316 316 314 314 314 314 315 316 316 315 315 315 314 314 314 313 314 316 317 318 319 318 318 317 315 316 316 314 314 314 316 318 319 318 318 318 318 319 318 318 319 319 317 316 316 316 317 318 316 316
310 311 311 311 311 311 311 314 315 314 314 312 311 316 320 319 319 319 319 319 319 319 319 320 321 321 320 320 321 322 322 320 318 317 317 316 315 316 315 314 314 315 315 316 316 316 316 315 315 315 315 314 313 315 317 320 320 319 317 317 317 315 315 317 317 316 315 316 318 318 317 318 318 319 319 318 318 319 319 318 317 318 317 317 317 318 318
310 311 311 311 311 311 312 314 315 315 315 312 312 319 321 319 320 319 318 319 319 319 320 320 321 322 321 321 322 322 322 321 320 319 317 315 314 316 316 315 315 315 315 316 315 315 316 315 316 316 315 314 314 315 317 320 321 320 317 317 317 315 315 317 317 315 315 316 316 316 317 317 317 317 317 317 318 318 319 319 318 318 317 317 318 319 319
311 311 311 311 312 312 312 315 315 315 315 312 312 318 321 320 320 319 317 319 319 319 321 321 321 322 321 320 321 322 322 321 321 319 318 317 316 315 316 317 316 315 314 315 315 316 315 315 315 316 316 316 315 315 316 317 319 319 318 318 317 315 315 317 317 316 316 316 315 315 315 315 316 316 315 316 316 316 317 318 318 318 317 318 318 319 319
312 312 312 311 312 312 313 315 315 314 314 313 313 316 318 318 319 319 319 319 318 319 321 321 321 321 320 320 320 322 321 320 320 319 318 320 319 316 317 318 316 315 314 314 315 316 315 315 316 316 316 316 315 315 316 316 317 317 318 319 318 316 315 318 318 316 316 316 315 315 315 315 316 315 314 314 315 315 316 317 317 317 318 318 318 318 318
313 312 312 312 312 313 314 315 315 315 314 314 313 314 314 314 315 316 319 320 319 319 320 320 320 320 319 320 320 321 321 320 320 319 318 319 319 318 318 319 317 316 316 315 316 316 315 315 315 315 315 315 315 315 315 315 316 317 318 319 318 316 316 317 317 314 315 316 315 315 315 315 314 315 315 315 315 315 316 316 317 317 317 318 318 317 317
313 313 313 313 314 314 315 315 316 315 315 314 314 313 312 313 314 315 318 320 318 318 319 319 318 318 320 320 320 321 320 319 320 320 318 317 318 318 319 319 318 318 318 317 316 316 315 314 314 313 313 313 313 314 315 314 315 316 317 318 317 316 315 315 315 313 314 316 315 315 315 314 313 314 315 315 315 315 316 316 316 317 318 317 316 316 316
314 313 313 314 315 315 316 316 316 316 316 315 315 314 312 312 314 316 317 317 317 317 318 318 318 319 320 321 321 321 321 320 319 319 318 318 318 318 318 319 318 318 319 317 315 314 314 313 313 312 312 312 313 314 315 315 314 314 316 316 316 316 315 314 314 314 314 315 315 315 315 314 313 314 314 314 315 315 316 316 316 317 317 317 316 316 316
315 314 314 315 316 316 316 316 316 316 316 315 315 314 311 310 313 316 316 316 316 316 316 317 319 321 321 321 321 321 320 320 320 320 319 319 319 318 318 319 318 318 317 316 314 313 313 313 313 313 313 313 314 314 315 315 314 313 314 315 315 315 315 314 314 314 313 313 314 314 315 315 314 315 315 315 315 315 316 316 316 316 317 317 317 316 316
316 315 315 315 316 317 317 317 317 316 316 315 315 314 311 309 312 314 316 316 315 316 317 317 319 320 320 321 321 320 320 319 319 320 320 319 319 318 317 318 318 317 316 315 315 315 315 316 315 314 314 313 314 315 315 314 315 314 314 315 314 315 314 313 313 313 313 313 313 314 315 315 315 317 317 316 316 316 316 316 316 315 316 317 317 316 316
316 316 316 316 316 316 317 317 317 317 316 316 315 315 313 311 311 313 315 315 314 315 317 316 316 318 319 320 320 320 320 320 320 320 320 319 319 318 317 316 316 316 316 315 316 316 316 316 315 315 315 315 315 315 315 314 315 315 316 316 314 314 314 313 313 313 313 313 313 314 315 315 316 317 317 317 318 319 318 317 316 316 316 316 316 316 316
316 316 316 316 316 316 317 317 317 317 317 316 315 315 315 312 310 312 314 314 313 314 314 313 315 317 318 319 319 319 319 319 319 319 319 319 319 317 316 316 315 316 316 316 316 316 316 316 316 316 316 315 315 315 314 314 315 314 314 315 315 314 313 313 314 313 312 313 313 314 316 316 315 316 317 318 319 319 318 317 316 316 316 316 316 316 316
314 315 315 315 316 316 316 316 317 317 317 316 315 314 315 313 310 311 313 313 311 311 311 312 315 315 315 317 319 318 318 318 318 318 318 318 318 316 316 316 316 316 316 315 316 316 316 316 317 317 316 315 315 315 314 314 315 314 314 314 315 315 314 313 313 313 313 313 314 315 315 315 315 317 317 317 317 318 318 318 317 315 316 316 316 316 316
313 314 314 315 315 316 316 316 316 316 316 316 315 314 315 315 312 311 313 313 311 310 309 312 314 314 313 314 316 316 317 317 318 318 318 318 317 316 315 316 316 316 315 316 316 315 316 317 316 317 317 316 316 315 315 314 315 316 316 315 315 315 314 313 313 313 313 313 314 314 314 314 315 317 315 315 317 317 316 317 316 315 316 316 316 316 316
312 313 314 315 315 316 316 315 315 315 315 315 315 314 314 315 314 311 312 313 312 311 310 311 312 313 313 313 314 316 316 316 317 317 317 316 317 316 315 316 316 316 315 316 316 315 316 316 316 317 318 316 315 316 316 315 315 316 316 316 316 315 314 314 313 314 314 314 314 314 314 314 315 316 315 315 315 315 314 315 316 315 316 316 316 316 316
311 312 314 315 315 315 315 315 315 315 314 314 313 312 313 315 315 311 311 313 313 313 312 311 312 313 314 313 314 315 315 316 316 315 315 316 316 315 315 316 316 316 315 315 315 315 315 316 317 317 316 316 316 316 316 316 315 315 315 316 316 315 314 314 314 314 314 314 314 315 314 314 315 316 316 315 314 313 314 316 316 316 316 316 316 316 317
310 312 313 314 314 315 314 314 314 314 313 313 312 310 311 314 315 313 312 313 314 314 314 313 311 312 313 312 312 313 313 314 315 315 314 315 316 315 315 316 315 315 315 315 315 315 315 315 316 316 316 317 316 316 316 316 316 315 315 315 315 315 315 314 314 314 314 315 316 315 316 317 316 316 315 314 313 314 315 316 316 316 316 316 316 316 316
310 311 312 313 314 314 314 314 314 314 313 312 312 311 311 313 315 314 312 312 313 314 314 313 311 311 312 312 312 314 314 313 314 314 314 315 315 315 315 316 315 315 315 315 315 315 315 315 316 316 316 316 316 315 316 317 316 315 315 315 316 315 315 315 315 314 314 315 316 316 316 317 317 316 315 315 314 316 318 316 316 316 316 315 315 315 316
309 310 310 310 311 312 314 315 314 313 313 312 311 310 310 311 314 314 311 310 311 313 313 312 310 310 311 312 312 313 313 313 314 314 314 315 315 315 315 316 315 315 315 314 314 314 315 315 314 315 315 315 316 315 315 316 316 316 314 315 316 316 315 315 315 315 315 315 315 315 315 316 317 316 316 316 316 317 318 317 316 316 315 315 315 315 316
309 309 309 309 310 311 313 314 313 313 313 312 310 310 309 310 312 311 309 308 309 311 312 312 312 312 312 312 312 312 311 312 313 314 314 314 313 314 315 315 315 316 315 315 315 314 315 315 314 314 315 315 315 316 316 316 316 316 315 315 315 315 315 316 315 315 315 315 315 315 315 315 315 315 316 317 317 316 317 317 316 315 315 315 315 315 315
308 309 310 310 311 312 312 312 312 312 313 311 310 310 309 310 311 309 307 307 308 309 311 312 312 314 314 313 313 313 312 311 312 312 313 313 313 312 313 314 315 315 315 316 316 315 314 315 315 315 315 315 315 315 316 316 315 315 315 315 315 314 315 315 315 315 316 317 316 315 315 315 315 315 315 316 316 316 315 316 315 315 315 315 316 316 316
307 308 309 309 310 312 312 311 311 312 312 311 310 310 309 309 310 310 309 308 307 308 312 314 313 313 313 311 310 310 310 311 311 312 312 313 313 312 313 314 314 315 316 316 316 314 313 314 314 315 315 315 315 315 315 315 315 315 315 315 316 315 314 314 315 315 316 316 316 315 315 315 315 314 314 314 315 315 315 315 315 315 315 315 316 316 316
307 307 308 308 309 310 311 311 311 311 312 311 310 309 309 309 309 310 309 308 308 309 311 314 314 311 309 309 310 309 308 308 310 311 312 312 312 312 313 313 314 314 315 315 314 314 313 313 313 314 314 314 314 314 315 315 315 315 315 315 315 315 314 314 315 315 315 316 315 315 315 315 315 315 315 315 315 315 315 315 315 315 315 315 315 316 316
307 307 308 308 308 309 311 311 311 311 312 311 310 309 309 309 309 309 309 309 312 313 311 313 315 311 309 310 311 309 308 307 308 309 310 310 310 311 312 313 313 312 313 313 313 313 312 312 312 313 313 313 314 314 314 314 314 314 314 314 314 315 314 314 315 316 315 315 315 316 316 316 315 315 315 315 315 315 315 315 314 315 314 314 315 315 316
305 306 307 307 308 309 310 311 311 312 312 311 310 309 310 309 309 309 309 310 313 314 312 312 314 313 311 312 311 309 309 309 308 308 309 309 309 310 311 312 312 311 311 312 312 311 310 311 312 312 312 313 314 313 313 314 314 314 314 314 314 314 314 314 314 315 315 315 314 315 316 315 315 315 315 315 314 315 315 315 314 314 314 314 314 315 315
304 305 306 307 307 308 309 310 311 311 312 311 309 309 309 309 308 309 309 309 311 311 310 310 313 313 313 312 311 309 310 310 309 309 309 309 309 310 310 311 310 310 311 311 310 309 309 309 310 311 312 314 314 313 313 313 314 314 315 314 314 314 314 314 315 315 315 314 314 314 315 315 314 314 314 314 314 314 314 314 314 314 314 314 314 314 314
303 304 305 306 307 308 308 309 310 311 311 310 309 308 307 308 308 308 309 309 310 309 309 310 312 313 312 312 312 311 310 310 310 311 311 310 310 310 310 310 310 309 310 310 308 308 309 309 310 311 312 313 313 312 312 313 313 313 313 313 314 314 314 314 314 314 314 314 314 314 314 314 314 314 313 314 314 314 314 314 314 313 314 314 314 314 314
301 303 305 306 307 307 308 308 309 310 310 309 308 307 307 308 309 309 308 309 309 308 307 308 310 310 310 312 313 312 311 310 310 311 311 311 311 311 310 310 310 310 310 309 309 309 309 310 311 312 312 312 312 311 312 313 313 313 313 314 314 313 314 314 314 314 314 314 314 314 313 313 314 314 313 313 314 314 314 314 314 313 313 313 313 313 314
301 303 304 306 307 307 307 308 308 309 310 309 308 308 308 309 310 309 308 308 309 307 306 308 310 310 311 312 311 311 311 310 310 311 311 311 311 312 311 311 311 311 310 310 310 310 310 310 310 311 312 312 312 312 313 313 314 314 314 314 314 313 313 314 314 313 313 313 313 313 314 314 314 314 314 313 314 314 314 314 314 314 313 313 313 313 313
301 303 305 306 307 307 308 308 309 309 309 309 309 309 308 309 310 310 308 308 308 307 306 308 309 309 311 311 309 308 309 310 309 310 310 310 310 311 311 311 311 311 311 310 309 310 310 310 310 311 312 312 312 312 313 313 314 314 314 313 314 314 313 314 313 313 313 313 313 313 314 314 314 315 315 314 315 315 314 314 314 313 313 313 312 312 312
303 304 305 306 307 307 308 308 309 309 309 308 308 308 308 308 310 310 308 307 307 305 305 307 308 308 309 310 310 309 309 310 311 310 310 310 310 310 311 311 310 311 310 310 310 310 310 311 311 311 312 311 312 313 313 313 313 313 313 313 313 313 313 314 314 313 313 313 313 313 313 314 314 314 314 314 314 315 314 313 313 312 312 312 311 311 312
302 304 305 306 307 307 307 308 308 308 307 307 308 308 308 309 309 309 308 308 308 307 306 306 307 308 310 311 312 310 309 310 312 311 310 310 310 310 310 311 310 310 311 310 310 310 310 310 311 311 311 312 313 313 313 313 313 313 313 313 313 314 314 314 314 314 313 313 313 313 313 313 314 314 314 314 313 313 313 313 312 312 312 312 312 312 312
301 304 305 306 306 307 307 307 307 307 307 307 308 308 308 309 308 308 308 308 308 308 308 306 306 308 311 313 313 310 308 309 311 311 310 310 310 310 310 311 310 310 311 310 311 311 311 311 311 312 312 312 313 313 312 312 313 313 314 314 314 314 314 315 314 314 314 313 313 313 313 313 313 313 314 313 313 313 313 312 312 312 312 312 312 312 312
299 302 304 305 305 306 306 306 307 308 308 308 308 308 308 308 307 307 308 308 307 308 308 308 308 310 312 313 312 310 309 310 311 310 310 310 310 310 310 311 311 311 311 311 311 312 312 312 312 312 313 313 313 313 312 313 313 313 313 314 314 313 314 314 314 314 314 313 313 313 314 313 313 313 314 313 313 313 313 313 312 312 312 312 312 312 312
298 299 302 304 305 305 305 306 307 308 308 307 307 307 306 305 306 307 307 306 307 307 308 308 310 312 313 313 312 310 310 311 312 311 310 311 311 311 310 311 311 312 312 312 312 312 312 313 312 312 313 312 312 313 313 313 313 313 313 314 313 313 313 313 313 314 314 314 314 314 313 313 314 314 314 314 313 313 313 313 312 312 312 312 313 313 313
298 299 301 304 305 305 306 306 307 307 307 307 307 306 304 303 305 306 306 305 306 308 308 308 310 312 313 312 311 310 310 311 311 311 311 311 312 312 311 311 311 311 312 313 312 312 313 313 312 312 312 312 312 313 313 313 313 313 313 313 313 313 313 313 313 314 314 314 314 314 314 314 314 314 314 314 313 313 313 313 313 313 313 313 313 313 313
300 301 302 303 305 306 306 307 307 307 307 305 305 305 304 303 304 306 306 305 306 308 308 309 310 311 311 312 311 310 309 310 311 312 312 312 312 312 311 311 311 311 312 313 312 311 313 313 313 313 313 314 313 314 314 314 314 314 313 313 313 313 313 313 313 314 314 314 314 314 314 314 314 314 314 314 314 314 313 313 313 313 313 313 313 313 313
301 301 302 304 305 306 306 307 306 305 304 304 304 304 305 304 304 304 305 307 308 308 308 309 310 310 310 311 312 310 309 309 312 313 312 312 311 311 311 311 311 311 313 313 311 311 312 313 313 313 313 313 313 314 314 314 314 313 313 313 313 313 313 312 313 314 314 314 314 314 314 314 314 313 314 314 314 314 313 313 313 314 313 313 312 312 313
301 302 303 305 306 306 306 306 304 302 302 303 304 305 305 305 304 304 305 307 309 309 308 309 310 310 310 311 311 309 308 309 310 311 311 311 310 310 311 311 310 311 313 312 310 311 313 313 313 314 313 312 313 313 313 313 313 312 312 313 312 313 313 312 313 314 315 314 314 314 315 315 315 315 315 315 314 314 314 313 314 314 314 313 313 312 312
300 302 304 305 305 305 305 305 303 302 303 304 305 306 307 306 306 306 306 307 308 309 309 309 309 310 310 309 308 308 308 309 309 309 310 310 309 309 310 311 311 312 312 311 311 313 314 313 313 313 312 312 313 313 313 313 313 312 312 312 312 313 313 313 313 314 315 315 315 315 315 316 316 315 315 315 315 314 314 314 314 313 313 313 313 313 312
300 301 302 304 304 304 305 305 304 304 305 306 306 308 309 308 308 308 308 308 308 309 308 309 309 310 310 309 308 307 308 308 308 308 309 309 308 309 311 312 312 311 311 311 312 313 313 312 312 312 312 312 313 313 313 313 312 312 312 312 312 313 313 313 313 314 314 314 315 315 315 316 315 315 315 315 314 314 314 314 313 313 313 313 313 313 312
301 301 302 303 303 302 304 306 305 304 306 307 307 308 310 310 310 310 310 309 309 309 309 309 310 311 310 309 308 308 308 308 308 309 309 308 309 310 311 311 310 310 310 311 312 312 312 312 312 312 312 312 313 313 313 313 312 312 311 312 312 312 312 312 313 313 313 314 314 314 314 315 315 314 314 314 314 314 314 313 313 313 313 313 313 313 313
301 301 301 304 304 303 303 306 306 305 306 307 307 308 309 310 311 311 310 309 309 309 309 310 310 310 309 308 307 307 307 308 308 309 309 309 310 310 310 309 310 311 312 312 312 312 312 312 311 311 312 313 312 313 312 312 311 311 311 312 312 312 312 312 313 313 313 313 314 314 314 314 314 314 314 314 314 314 314 313 313 313 313 313 313 313 313
301 300 299 302 305 304 303 305 307 307 307 307 308 308 309 310 311 310 309 309 310 310 310 310 310 308 307 307 308 307 307 307 308 309 309 309 310 310 309 310 311 311 312 313 313 311 311 311 311 312 313 313 312 313 312 311 311 311 311 312 312 312 312 312 312 312 313 313 313 313 313 314 314 314 313 313 313 313 314 313 313 313 313 313 313 313 313
301 299 299 302 305 304 303 305 307 307 308 308 308 309 309 310 310 310 309 309 310 310 309 308 307 306 306 306 307 307 307 308 309 309 308 309 310 311 311 311 312 311 311 312 312 311 311 311 312 312 313 313 313 313 312 312 312 312 311 312 312 312 312 312 312 312 313 313 313 312 313 313 313 313 314 314 313 314 313 313 313 313 313 313 313 313 313
299 298 299 302 304 304 304 305 307 308 308 308 308 309 309 310 310 310 310 310 310 310 308 307 307 307 306 306 307 308 308 308 309 309 308 309 311 312 312 312 313 312 311 310 310 311 311 311 312 313 314 313 312 312 312 311 311 311 311 311 311 311 311 312 312 312 313 313 313 313 313 313 313 314 314 313 313 313 313 313 314 314 313 313 313 313 313
297 298 300 302 304 305 305 306 307 308 308 308 308 309 309 309 310 309 309 308 307 307 307 307 306 306 306 306 307 308 308 308 308 309 309 310 311 311 311 312 312 312 311 310 310 311 311 311 312 313 313 312 312 312 312 311 311 311 311 311 311 311 311 311 312 312 312 313 313 313 314 313 314 314 313 313 312 312 312 313 313 314 313 313 313 313 313
297 298 300 303 305 306 306 306 307 308 308 308 308 308 308 309 309 309 308 307 306 306 306 306 306 305 306 307 309 309 309 308 308 310 310 310 310 310 311 312 312 310 310 311 311 310 311 311 311 312 312 312 312 312 312 311 311 311 310 311 311 312 312 312 312 312 312 312 312 313 314 314 314 313 313 312 311 311 310 311 312 313 313 313 313 312 313
299 300 302 303 304 305 306 306 307 307 308 308 308 308 308 309 310 309 308 306 305 305 306 306 305 306 308 308 308 308 308 308 309 310 311 310 310 310 311 311 311 310 311 311 311 310 311 311 311 311 311 311 312 312 311 311 311 310 310 311 311 311 311 311 312 312 312 312 313 314 314 314 313 313 313 312 311 310 310 311 312 313 313 313 312 312 312
Wind_Speed
7 10 14 17 21 24 25 26 27 31 32 28 22 12 3 2 1 3 6 3 4 5 3 3 2 1 2 2 3 3 2 3 3 3 3 2 1 2 2 1 1 1 1 2 1 2 3 3 3 2 2 1 4 4 1 1 3 4 1 3 3 2 2 4 5 4 2 1 2 1 1 3 6 6 5 5 5 5 6 6 5 4 5 4 5 7 2
7 10 14 17 20 22 23 24 26 28 29 29 21 8 1 3 2 1 5 3 3 5 3 2 3 3 3 3 4 2 1 1 1 2 2 1 1 2 1 1 1 0 0 3 2 0 2 3 1 2 3 2 6 5 0 3 3 2 2 2 3 3 2 2 5 4 4 5 5 5 4 4 6 6 5 5 5 5 4 5 5 5 8 8 7 7 2
8 10 13 16 18 21 22 22 24 25 27 27 18 5 2 3 2 2 1 2 1 3 2 2 2 4 5 4 5 4 2 1 2 1 2 1 1 1 1 1 1 1 1 3 2 1 2 2 1 2 2 3 5 3 1 3 3 2 4 2 2 3 2 2 5 6 5 4 2 2 2 4 6 5 5 5 7 7 5 5 6 7 7 7 7 7 2
8 10 12 15 16 19 21 21 22 23 26 27 16 5 3 2 2 2 2 2 1 1 1 2 3 4 5 4 4 4 4 3 1 1 1 2 0 1 1 1 2 3 3 4 4 3 2 3 2 3 3 3 4 3 1 1 1 4 4 0 2 3 3 5 7 7 6 5 4 3 5 4 5 5 6 7 7 7 7 6 7 6 6 7 8 9 8
10 10 12 14 15 18 20 20 20 21 24 26 15 4 3 2 1 0 1 2 2 2 2 2 2 2 4 3 3 4 5 5 3 1 1 2 2 2 1 2 3 3 3 4 4 3 3 4 4 4 4 3 4 4 2 3 5 6 4 1 2 4 4 5 7 9 8 7 4 2 3 6 7 7 8 8 7 8 9 9 8 7 6 7 6 5 8
13 13 14 14 15 17 19 20 18 19 23 23 13 3 2 1 1 2 2 1 1 1 1 1 1 2 3 2 2 4 5 5 4 2 2 3 4 3 2 4 4 3 3 3 3 3 4 4 4 4 4 5 4 5 5 5 7 7 4 2 2 5 5 2 4 8 8 6 5 4 5 7 8 9 10 10 10 11 12 13 12 10 9 10 8 7 10
17 16 15 15 15 15 18 19 17 18 22 20 10 3 1 1 1 1 1 2 1 2 2 0 2 4 3 2 3 4 5 5 4 2 3 4 4 4 3 3 4 4 4 4 3 3 3 3 3 4 4 5 5 5 5 5 7 7 5 3 2 5 3 1 3 8 8 7 6 5 7 9 9 10 12 12 13 14 14 14 14 14 14 14 13 15 15
19 19 17 17 16 15 16 17 15 16 20 16 7 4 3 2 2 2 2 2 1 1 0 2 4 4 3 3 3 4 5 5 3 3 5 5 4 5 5 2 3 3 4 5 5 3 3 4 3 3 4 4 4 6 5 4 6 7 6 4 3 3 2 1 2 7 7 6 5 5 7 8 10 12 12 13 14 14 14 14 13 14 14 15 15 15 14
21 21 20 19 18 16 16 15 13 13 16 13 6 3 4 3 3 3 4 2 2 2 2 3 4 4 4 4 3 4 6 5 4 4 6 5 4 5 4 2 3 3 5 7 7 5 4 6 5 3 5 5 3 3 4 4 6 7 6 5 4 4 3 1 3 7 6 3 3 5 7 9 12 14 15 15 15 14 13 12 12 13 14 14 14 12 11
23 23 22 21 19 17 16 15 12 10 11 11 7 3 4 3 3 3 5 2 1 2 2 3 4 3 2 2 3 4 3 2 3 4 4 5 5 3 3 3 3 4 5 5 5 4 4 6 5 4 5 5 4 3 2 4 6 6 6 6 5 5 5 4 5 7 5 2 2 5 7 9 10 8 7 8 9 10 11 11 12 13 13 12 10 9 8
25 24 24 22 20 18 16 15 12 9 8 8 7 6 5 4 3 2 4 3 2 2 3 4 4 1 1 1 3 4 4 3 5 6 4 5 4 3 3 4 4 3 1 1 2 2 2 2 2 3 5 6 5 4 4 6 7 7 6 6 5 6 7 6 4 6 7 5 4 7 9 8 3 3 2 3 6 8 10 9 9 10 10 10 11 10 9
25 26 25 23 21 18 16 15 13 11 8 6 7 7 4 3 4 3 4 4 2 2 4 4 1 0 1 3 4 4 5 5 5 5 5 3 4 3 4 5 4 2 3 4 3 2 2 2 3 4 6 7 6 6 7 9 9 8 7 7 7 7 7 6 5 5 7 6 6 7 6 3 2 2 1 4 7 9 10 11 12 11 11 12 13 13 12
25 26 26 25 22 19 17 16 14 13 11 8 6 6 5 4 4 3 4 5 3 2 3 2 0 1 3 3 4 4 3 4 3 4 6 5 4 5 6 5 3 1 5 4 2 2 3 3 4 5 6 7 7 8 11 13 12 11 9 8 9 8 7 6 5 6 6 6 6 6 4 7 8 3 1 0 2 5 7 9 10 10 11 11 12 13 12
23 25 26 26 23 21 18 17 16 14 13 10 7 7 8 6 4 3 3 4 4 2 2 3 2 5 6 6 5 4 3 3 3 4 6 6 6 6 6 4 2 3 4 3 2 3 4 3 3 4 4 5 6 6 8 10 9 9 10 10 9 9 8 6 6 6 6 6 7 6 7 10 6 2 4 1 1 1 1 6 7 6 7 9 11 11 11
19 20 23 24 24 23 21 19 18 16 15 13 11 9 9 8 5 4 3 4 5 3 4 5 3 4 6 6 6 6 5 4 5 5 4 3 4 4 4 3 3 4 4 3 3 3 3 3 4 4 3 4 4 2 2 4 3 2 6 8 9 10 9 7 7 6 5 7 7 7 7 7 1 6 5 2 1 1 2 6 6 1 1 5 8 8 8
19 19 19 20 21 22 21 20 20 18 17 16 14 12 12 11 8 5 4 4 5 4 2 3 3 3 4 4 4 5 6 4 4 5 5 5 6 5 4 4 4 5 5 4 3 3 3 4 4 4 4 4 3 2 2 2 3 3 1 5 9 10 9 8 8 7 7 7 7 6 6 5 1 3 5 5 3 1 4 7 3 4 5 0 4 5 5
21 20 20 20 20 20 20 20 20 20 19 19 18 16 15 14 11 8 5 4 5 5 2 1 2 4 4 4 3 4 4 3 3 4 4 4 6 6 6 5 5 5 6 5 3 3 4 5 4 5 5 3 2 4 4 3 4 3 4 4 8 8 7 8 9 9 8 9 8 6 6 5 1 2 6 7 4 2 5 6 1 6 5 1 1 2 2
22 21 21 21 21 21 21 21 21 20 20 22 22 20 18 17 14 11 6 4 5 6 3 2 5 5 3 3 2 2 2 2 3 4 4 2 3 5 6 5 4 4 5 5 4 4 5 5 5 6 4 1 1 4 3 2 4 3 4 4 5 6 6 8 9 9 9 9 9 7 6 6 5 5 8 9 4 3 6 4 2 5 3 2 1 2 1
24 22 21 21 21 21 21 21 21 21 21 22 24 22 19 20 19 15 8 4 6 6 2 1 4 6 4 3 3 1 1 3 3 4 4 3 3 3 4 3 2 3 5 5 5 5 5 5 5 5 5 3 3 4 4 4 4 3 4 5 5 5 5 6 8 8 8 9 9 9 7 5 6 7 8 8 4 6 6 0 4 3 1 1 1 3 2
26 24 21 20 19 19 19 20 21 21 20 22 26 23 19 21 23 21 14 6 4 8 7 3 6 8 6 6 7 4 3 4 4 5 6 3 3 5 5 4 4 4 4 5 5 4 5 6 4 3 5 5 1 2 5 7 7 6 6 7 6 5 5 6 7 7 7 7 8 9 7 2 6 8 7 8 8 5 1 1 2 1 1 2 3 3 3
24 23 22 19 18 18 18 17 19 21 20 22 27 26 20 20 24 25 21 12 5 6 7 4 7 11 10 10 10 9 7 6 4 4 5 2 3 5 5 3 4 4 4 4 5 3 4 5 4 3 5 4 1 2 6 7 7 6 6 6 6 6 7 7 6 6 7 7 8 8 4 3 9 8 4 7 9 3 3 2 3 2 4 5 5 4 4
22 23 23 23 22 21 19 18 17 18 20 22 27 28 21 19 22 26 26 19 10 7 6 3 6 11 13 13 13 12 11 10 6 4 4 3 3 4 4 2 3 4 2 3 5 4 3 4 5 4 5 5 3 5 8 8 7 5 5 5 5 7 7 6 5 6 8 9 8 6 3 2 7 6 5 5 8 6 3 4 5 5 5 5 6 6 5
23 23 25 26 26 24 22 20 17 17 19 22 27 31 26 20 21 25 25 17 9 9 11 11 10 11 14 18 21 20 18 15 11 7 6 6 4 5 5 5 3 2 2 4 5 5 4 5 5 5 6 6 5 7 8 9 8 7 6 7 8 8 7 4 4 7 10 12 11 10 9 7 8 9 8 6 7 7 6 6 7 7 6 6 6 7 7
23 22 22 23 25 25 23 20 18 18 19 21 27 33 30 23 21 23 19 8 4 5 8 9 10 9 9 10 13 17 20 20 18 15 11 9 7 5 4 4 3 3 4 4 3 4 4 4 3 4 6 7 6 7 8 8 8 9 9 9 10 10 9 7 8 9 10 10 9 10 11 12 10 9 9 9 9 10 9 8 7 7 7 7 7 7 7
24 24 22 21 21 22 21 19 18 19 19 21 26 30 28 24 25 27 19 7 3 3 3 6 10 10 9 7 6 9 14 17 18 18 16 15 13 9 3 1 1 4 4 2 2 4 5 5 4 6 7 7 6 7 8 8 8 8 9 10 9 6 7 8 12 13 12 12 13 12 12 12 10 9 8 8 10 11 10 9 8 8 8 8 7 6 6
26 26 25 23 21 21 20 19 18 19 20 21 25 31 32 28 28 30 21 8 3 3 3 5 7 8 8 9 9 9 9 11 14 17 19 20 18 14 7 1 2 3 2 1 3 5 6 6 7 8 8 7 6 7 9 9 10 10 11 12 9 3 5 7 11 12 13 15 16 15 14 13 13 13 12 11 12 13 12 11 10 9 9 9 8 7 7
24 25 26 24 22 21 21 20 19 20 20 21 25 31 34 31 28 30 27 16 5 2 5 5 4 4 8 9 10 10 10 10 12 14 16 19 19 18 14 9 5 4 4 4 3 3 5 7 7 8 8 6 5 7 9 10 11 12 12 12 10 8 9 10 10 10 11 13 13 11 10 10 12 13 14 14 14 13 13 12 11 11 11 11 11 10 9
20 22 24 23 22 22 21 20 20 20 21 22 25 29 34 33 29 31 33 27 11 1 2 3 2 2 5 8 9 11 12 11 12 13 13 16 17 18 17 13 8 6 6 6 4 4 6 7 7 7 7 5 6 8 9 9 11 12 12 12 11 12 13 13 11 12 12 13 13 11 9 10 12 14 14 14 13 14 15 15 14 14 13 12 11 11 10
23 22 23 23 23 24 22 21 20 18 19 21 22 24 27 29 29 28 31 32 21 5 2 1 3 2 1 2 4 10 13 13 13 13 12 13 14 15 15 14 10 8 7 6 6 6 7 7 7 6 5 4 5 7 8 10 12 13 12 13 14 15 16 16 16 15 15 15 15 13 11 12 14 14 14 14 13 14 15 15 14 13 13 13 12 11 11
27 25 24 24 24 24 24 23 20 18 19 20 18 14 11 14 23 31 34 35 30 14 1 2 4 2 2 1 4 9 12 12 12 13 13 12 12 13 13 11 9 8 7 6 6 6 6 6 6 7 7 6 5 6 8 10 12 13 13 14 15 15 16 17 17 16 15 15 14 12 12 13 13 12 13 13 13 13 12 12 13 13 14 14 13 11 12
27 26 25 25 24 24 24 25 22 20 21 20 15 7 1 3 14 28 36 39 33 16 2 1 2 2 2 3 6 9 13 13 11 11 12 12 11 11 12 10 8 8 7 6 6 7 6 6 6 7 8 8 7 8 10 10 12 15 14 12 12 13 13 14 15 16 15 14 13 13 14 13 12 10 11 13 14 14 12 12 14 14 14 15 15 14 13
25 25 25 24 25 25 26 26 24 23 25 27 21 11 4 3 3 13 27 36 30 12 1 1 2 2 1 2 3 6 11 12 9 8 8 8 8 9 10 9 8 8 8 7 7 7 7 7 7 7 8 8 7 7 9 10 14 16 12 6 8 11 11 12 13 14 14 14 13 13 14 14 13 13 12 13 13 13 11 11 13 14 13 13 14 14 14
22 24 24 23 23 24 25 26 26 25 27 31 29 22 13 5 4 5 23 31 21 8 3 3 2 2 2 1 1 6 10 9 6 6 6 7 7 7 7 8 8 7 8 8 7 6 5 6 7 8 8 8 7 7 10 14 18 18 13 9 10 12 12 12 14 14 14 14 14 14 15 15 14 14 13 12 12 11 12 12 13 12 12 12 12 13 14
21 22 23 22 22 22 23 24 25 26 26 26 25 24 22 13 3 8 25 27 11 2 3 3 2 3 3 1 1 8 11 8 6 7 7 7 9 7 6 6 7 6 8 9 7 6 6 7 7 8 8 8 8 9 13 16 17 15 14 14 14 13 13 13 14 14 15 14 15 16 17 17 16 15 15 13 12 13 13 13 12 12 12 12 13 13 13
20 22 22 21 22 23 23 22 23 24 22 18 15 18 26 24 15 14 27 26 9 1 3 4 2 4 5 2 2 7 10 7 5 6 6 6 7 7 5 6 7 7 7 7 7 8 8 7 7 8 8 8 9 11 13 15 14 12 13 14 13 13 13 14 15 15 15 15 15 16 17 18 18 17 16 15 15 14 14 13 12 13 13 13 13 13 12
20 20 19 19 21 22 20 20 23 21 15 11 10 13 20 23 20 21 29 26 11 2 3 5 4 6 7 5 3 6 9 7 4 5 4 4 5 6 6 6 6 6 4 5 7 9 8 7 7 8 9 10 12 12 12 14 15 15 15 15 13 13 14 16 16 16 16 16 17 17 17 19 19 17 16 16 15 14 15 15 14 14 15 15 14 13 11
21 21 19 17 17 15 13 15 20 19 13 11 12 13 14 15 14 17 22 19 10 4 3 4 6 8 8 6 3 6 8 7 5 5 5 4 4 6 6 6 6 4 3 6 8 8 7 6 7 9 11 12 13 14 13 14 15 15 15 15 14 14 15 16 17 18 18 19 19 18 17 18 18 16 15 16 15 14 15 16 15 14 15 15 14 12 13
20 22 21 16 10 6 6 8 13 16 16 18 17 12 10 9 7 6 8 7 5 5 4 4 6 7 6 5 4 5 6 6 6 6 6 5 4 4 5 5 5 3 3 6 7 6 6 6 6 9 12 13 15 16 16 15 15 15 15 15 15 14 15 15 16 17 18 18 18 17 16 17 18 16 15 16 15 15 14 14 13 13 14 14 14 14 14
18 17 16 13 9 4 2 7 15 20 22 21 15 7 3 3 2 2 3 2 2 4 5 5 7 8 8 7 5 3 3 5 7 6 6 5 4 4 4 4 4 3 4 6 5 5 6 6 5 7 11 13 15 17 17 16 16 16 15 15 15 15 14 14 14 16 17 16 16 16 15 16 16 15 14 13 13 13 13 13 13 13 13 13 14 15 15
16 12 8 8 7 4 8 17 25 24 18 11 5 2 1 2 3 3 3 4 4 5 5 6 7 9 10 9 7 4 4 4 5 6 6 4 2 2 3 4 4 4 5 6 5 5 6 7 6 7 10 10 10 11 10 11 12 13 12 13 13 14 14 13 13 14 15 16 17 17 16 16 17 15 14 13 12 12 12 12 12 12 13 13 15 16 16
14 10 7 6 6 12 21 26 23 15 8 2 1 2 2 3 3 2 4 6 7 6 5 7 9 10 12 12 9 6 4 2 0 2 4 4 1 2 4 4 3 3 5 6 4 4 6 7 7 10 13 11 8 6 6 7 9 10 10 11 11 12 13 13 13 14 14 14 14 14 15 16 16 15 14 14 13 12 12 11 11 12 14 14 15 17 18
16 12 10 8 11 17 21 18 10 3 1 1 2 3 3 3 4 4 5 6 6 5 6 9 11 11 12 11 6 2 2 2 1 1 4 4 2 2 4 4 3 4 5 4 3 4 6 6 7 12 14 11 9 9 9 8 8 9 9 10 10 11 12 13 12 13 13 13 12 12 12 13 13 13 14 14 13 13 13 12 12 14 15 16 16 17 17
24 19 14 10 10 11 9 5 3 2 2 2 3 4 5 4 4 5 5 4 4 5 6 8 9 8 7 6 3 2 1 2 1 2 3 3 2 2 4 4 3 3 3 2 3 5 6 7 10 13 11 8 7 8 7 7 7 9 9 10 10 11 11 11 11 11 12 12 12 12 12 12 12 13 13 13 13 13 13 14 15 15 15 15 15 16 16
23 18 11 5 4 4 4 4 3 4 5 4 4 6 7 7 7 8 8 6 6 8 9 10 11 11 8 5 3 3 2 2 1 2 3 3 2 3 5 4 3 3 2 2 4 6 6 8 12 13 10 8 7 8 7 7 8 9 9 9 9 9 10 10 10 10 10 10 11 12 11 11 11 11 11 12 12 12 12 13 15 15 15 15 15 15 16
12 8 5 3 2 3 4 4 3 4 5 5 5 6 8 10 10 10 8 6 7 10 11 12 11 10 8 5 3 2 3 3 3 3 3 3 4 4 4 3 3 4 4 5 6 6 8 11 12 11 11 11 11 9 9 8 8 8 8 8 8 8 9 9 9 8 8 8 9 9 9 9 9 9 9 11 12 12 13 13 14 14 14 15 15 15 15
5 2 3 4 4 3 3 3 4 5 5 5 6 8 9 10 9 8 7 6 8 11 13 12 10 9 7 4 2 2 3 4 4 4 3 3 4 4 3 3 4 5 5 7 8 8 11 13 11 9 10 11 10 7 7 6 6 7 7 7 7 7 8 8 8 8 8 8 8 8 8 8 8 8 9 11 12 13 14 14 14 14 13 13 14 15 15
4 2 3 4 3 3 3 4 4 4 5 6 8 9 9 9 9 7 7 8 8 9 9 7 5 6 4 2 2 3 4 4 4 5 4 3 3 4 3 4 5 5 5 8 10 10 10 11 8 7 8 9 7 6 6 6 6 6 6 6 6 7 7 7 8 8 8 9 9 8 8 8 9 9 10 10 12 13 14 14 14 14 14 14 15 15 15
3 2 3 4 3 3 5 6 5 4 5 6 8 8 7 7 9 8 8 8 8 10 11 9 6 5 3 2 2 4 5 4 4 4 4 3 3 4 4 5 6 6 6 9 11 11 10 9 7 6 7 7 6 6 6 6 6 6 6 6 6 7 7 7 7 7 7 8 8 8 8 9 10 10 10 10 12 13 14 14 14 14 15 16 16 15 15
3 2 2 3 2 2 4 6 6 6 6 6 6 8 8 8 9 9 8 7 7 8 8 7 6 6 4 2 2 4 4 4 4 4 4 5 5 5 4 6 9 9 8 9 10 10 9 8 7 6 6 6 5 6 6 6 6 6 6 6 6 6 6 6 6 6 7 7 8 8 9 9 10 10 10 10 10 12 12 12 13 14 15 16 15 15 15
3 2 2 3 4 3 4 6 7 8 7 6 6 8 9 9 8 7 7 7 8 7 5 3 3 3 4 3 3 3 4 4 4 5 7 8 7 6 7 10 11 9 8 9 10 9 8 6 5 5 6 6 6 7 6 6 6 6 6 6 7 6 6 7 7 7 8 9 9 10 10 9 9 9 8 8 10 11 12 12 13 14 15 15 15 15 15
2 2 3 4 5 4 5 6 7 8 9 8 7 7 8 9 8 8 7 8 9 9 6 3 2 3 3 4 4 3 3 3 3 5 7 7 6 8 11 12 10 7 7 9 9 8 8 7 6 6 6 6 7 7 7 7 7 7 7 7 7 7 7 7 7 8 9 9 10 10 10 10 9 8 7 8 9 10 10 11 13 14 14 14 14 15 17
3 3 5 6 6 5 5 6 7 7 7 8 8 8 8 7 6 7 8 8 8 8 7 5 4 4 4 5 4 3 3 3 4 6 8 8 7 9 11 10 7 6 7 7 7 6 7 7 6 6 6 7 7 7 7 6 7 7 8 8 8 8 7 7 7 8 9 9 10 10 10 10 9 7 6 6 7 7 6 8 10 11 11 12 13 14 16
Wind_Direction
326 336 337 343 349 352 355 355 354 355 358 1 356 340 292 258 287 70 20 5 200 242 248 159 207 195 95 82 105 114 162 167 165 174 190 207 188 194 201 222 259 241 274 287 230 240 266 249 254 265 230 172 74 69 58 252 236 243 242 112 138 207 262 262 262 256 245 101 115 141 352 291 258 242 241 250 256 261 267 283 299 279 259 262 260 265 256
316 323 331 339 345 349 353 352 353 356 359 359 351 332 319 330 293 84 15 19 207 249 259 198 199 131 132 163 135 123 170 151 185 193 184 197 205 207 192 188 246 212 249 262 251 255 257 244 247 270 247 128 82 66 80 237 234 237 335 47 159 214 250 264 272 252 212 209 205 197 197 222 243 244 228 236 257 263 266 275 278 267 264 263 262 271 275
305 313 323 334 340 346 349 348 351 354 355 357 352 321 292 308 241 195 18 34 234 262 312 303 225 151 166 182 158 165 163 81 336 274 151 164 260 261 144 135 221 207 215 236 219 204 258 258 201 241 236 139 106 82 104 244 259 39 24 20 186 252 278 251 269 263 236 241 249 238 236 223 234 243 229 232 241 237 242 260 252 250 261 256 251 270 286
290 302 314 326 334 339 342 344 349 352 352 354 349 307 284 302 224 184 165 149 219 248 28 306 259 174 183 188 174 200 183 125 63 288 174 154 173 296 129 164 212 201 212 230 216 198 232 266 261 248 232 177 123 95 119 205 128 93 71 53 215 265 274 247 259 264 269 303 338 355 337 299 257 246 235 231 234 238 246 256 255 264 276 257 246 262 274
278 288 302 317 326 332 337 342 348 350 349 352 348 298 264 296 300 9 155 173 199 187 170 233 248 179 199 199 170 205 199 153 153 224 233 157 170 212 199 211 223 203 207 232 227 209 215 234 246 256 248 214 129 117 154 149 137 137 133 192 236 264 264 246 253 258 264 289 306 311 305 286 276 272 256 241 235 238 243 248 260 280 279 263 264 268 266
272 278 291 306 316 325 331 338 349 349 346 350 350 304 255 306 340 21 348 283 209 166 153 215 202 166 202 222 176 199 203 184 182 186 160 170 197 218 210 215 230 227 217 229 226 221 228 231 230 233 239 227 180 169 182 168 166 175 174 173 245 276 274 245 255 265 262 257 256 253 257 264 268 268 263 257 249 244 245 250 257 265 262 264 287 290 270
269 274 281 294 305 315 324 334 346 346 343 349 349 320 335 331 332 59 321 297 18 49 38 271 208 186 195 217 198 211 218 204 196 167 169 190 205 223 235 216 210 213 218 233 241 232 239 245 237 232 236 237 224 215 206 176 177 197 199 169 216 276 276 178 262 273 265 248 244 246 253 259 260 258 257 256 254 251 251 253 256 259 261 265 275 279 276
266 271 276 284 293 304 316 326 336 340 343 350 348 346 14 337 331 16 280 257 95 75 153 206 213 190 195 223 199 210 233 219 197 188 206 211 184 199 238 229 179 204 217 230 247 251 261 272 267 244 234 232 232 238 244 209 186 204 214 182 181 254 268 113 264 275 264 243 236 240 250 261 263 261 258 253 252 252 250 251 254 256 258 259 263 270 273
261 267 272 277 285 296 306 314 322 334 345 351 344 8 22 330 318 324 287 258 138 187 202 212 240 214 200 219 196 204 234 231 219 208 217 237 216 197 226 217 163 197 216 234 252 259 262 267 272 262 248 250 251 248 260 244 213 213 221 204 194 226 246 216 252 273 268 227 233 262 267 269 265 260 254 249 247 247 247 246 245 246 251 256 255 257 264
255 261 268 273 280 288 296 304 309 323 342 347 337 353 12 325 293 285 286 281 162 218 208 203 240 238 209 231 211 219 239 230 232 226 212 231 238 222 225 222 206 212 216 238 270 288 280 275 281 280 264 268 277 276 281 269 252 238 227 219 221 235 252 264 263 273 274 236 260 291 287 276 269 258 245 246 249 250 250 246 241 242 246 252 252 251 262
251 256 262 269 275 280 286 293 298 303 322 337 332 334 354 337 303 283 279 264 210 217 231 221 225 218 126 206 215 230 239 214 223 238 223 202 201 204 209 218 246 263 256 50 31 19 327 284 279 265 252 256 261 262 267 262 258 255 242 232 236 238 250 268 270 271 273 266 282 294 279 267 274 86 119 246 262 260 257 253 252 249 244 248 255 262 271
249 252 258 265 270 273 277 281 285 288 291 306 315 314 324 325 302 285 278 272 234 198 232 238 243 290 207 205 222 239 247 240 237 250 253 207 156 174 197 205 240 277 83 94 109 139 188 205 218 231 236 246 250 250 258 254 245 247 247 244 244 239 242 255 258 261 272 281 288 278 264 272 349 21 287 271 272 265 260 262 265 259 249 248 252 258 264
249 251 256 262 265 267 269 271 275 277 274 275 290 295 297 307 298 285 286 280 262 230 244 252 176 222 222 212 228 242 258 268 256 246 253 237 184 188 197 205 232 119 115 138 183 246 261 256 254 248 237 239 246 244 246 248 246 243 239 239 246 245 242 249 252 252 260 269 262 252 285 324 319 310 108 43 259 243 250 265 266 255 246 243 245 251 256
253 253 255 259 262 263 263 263 265 268 265 257 254 266 278 278 269 289 301 281 274 275 274 275 227 211 219 220 227 238 241 238 229 220 230 235 228 220 207 198 177 120 142 182 228 271 280 289 287 271 246 233 243 247 239 237 243 249 241 233 236 242 245 246 248 248 252 260 258 261 294 304 295 156 125 131 210 155 295 298 286 263 245 239 242 250 252
258 256 255 257 259 260 260 258 258 259 258 249 237 243 261 257 246 274 292 280 286 280 243 254 249 210 218 218 220 236 235 219 222 218 201 208 234 227 188 162 155 152 175 225 260 270 281 294 287 280 266 251 259 276 236 206 181 244 256 240 229 232 240 243 245 242 240 258 268 267 273 282 197 121 123 113 74 50 323 298 286 262 212 238 243 246 248
266 264 260 257 256 257 257 255 252 252 249 241 229 227 243 245 232 239 258 264 278 278 255 272 284 250 235 218 212 240 249 235 227 227 212 207 214 198 140 124 160 178 190 226 259 269 263 267 272 272 275 284 289 295 281 228 167 126 146 225 219 221 232 241 247 245 236 249 263 254 254 276 334 129 141 136 146 236 287 284 270 100 86 271 247 246 249
269 268 266 262 259 258 257 254 250 247 242 236 229 223 232 239 226 219 240 248 248 263 292 335 253 233 227 219 206 221 241 247 242 247 245 220 206 188 150 136 162 190 206 231 247 250 252 255 264 271 275 285 290 283 280 255 225 169 129 167 196 206 217 225 234 241 240 246 254 251 249 259 258 137 136 138 141 299 290 275 208 95 80 46 260 263 260
268 265 262 260 258 256 256 254 250 247 241 234 227 221 226 233 225 214 224 248 251 257 262 228 239 250 267 278 253 195 207 246 239 241 248 221 199 196 180 166 171 192 210 234 244 242 254 257 256 269 274 199 227 277 276 248 251 228 162 162 179 192 206 215 225 237 239 240 250 258 255 246 230 199 160 143 137 289 274 268 70 78 70 52 324 294 261
268 266 260 257 254 251 250 250 248 248 245 235 224 218 222 228 220 209 207 228 248 248 229 131 244 264 301 312 282 204 213 264 250 232 231 219 189 176 175 186 226 215 206 224 242 245 254 257 251 265 268 217 202 266 266 247 249 222 188 197 198 189 195 208 221 234 236 240 250 257 259 256 237 211 175 159 194 253 251 252 56 52 36 36 292 276 263
263 264 261 257 254 250 247 247 247 247 248 239 225 217 221 224 218 211 208 210 243 254 255 245 239 249 259 252 245 241 224 226 227 228 238 230 155 163 192 210 214 210 206 221 234 237 248 257 252 246 260 256 231 276 265 252 247 237 230 239 235 210 205 215 215 217 231 240 242 249 261 217 148 152 154 177 211 249 293 88 91 76 315 307 278 267 266
257 260 261 259 258 255 249 249 249 247 247 242 228 221 223 224 218 215 216 215 223 252 253 237 234 246 251 248 255 266 261 250 250 247 250 242 150 192 234 237 199 201 203 216 231 231 238 258 259 238 255 265 233 243 262 262 255 240 235 255 257 226 224 241 229 205 219 232 225 234 258 158 159 171 186 201 210 240 359 306 267 278 280 278 275 266 253
255 260 264 264 265 262 253 248 249 247 248 243 229 220 223 226 218 213 214 214 221 252 270 275 253 251 252 251 254 258 258 266 288 294 272 254 193 219 262 282 219 224 226 227 244 247 236 249 256 250 254 254 236 245 256 260 262 237 199 215 235 213 214 248 260 234 239 254 255 259 286 145 179 220 267 246 229 239 265 278 285 288 279 275 276 271 255
257 261 264 265 266 263 253 247 248 248 248 242 227 218 220 225 218 210 207 209 228 263 272 269 264 260 256 253 252 248 245 249 251 244 244 247 230 224 243 247 239 245 238 240 259 274 266 259 260 259 261 258 250 255 255 252 263 263 231 221 231 222 209 224 264 262 261 264 266 269 272 261 241 244 255 256 250 250 255 265 271 275 277 276 273 275 270
256 258 260 262 261 256 248 245 249 250 246 239 229 222 221 225 218 202 192 193 236 263 260 247 241 245 248 247 246 239 233 234 234 227 222 228 233 225 223 232 235 232 226 231 267 292 273 265 264 256 259 262 258 259 259 253 259 267 258 248 248 237 218 218 242 255 259 259 257 257 259 261 263 259 254 251 250 250 253 257 260 270 279 278 271 273 271
255 256 259 263 260 251 243 244 250 250 244 239 233 223 217 221 217 202 185 168 184 205 233 236 226 226 232 234 233 229 226 226 227 220 212 214 225 234 238 87 218 252 252 227 226 244 245 246 250 248 252 255 249 252 261 261 262 265 259 259 262 236 194 220 247 249 250 258 262 261 262 266 270 268 262 257 256 255 252 247 248 257 267 270 269 263 260
252 253 255 259 262 256 247 245 249 251 248 241 231 220 215 218 216 204 189 164 143 183 228 256 232 203 203 223 229 224 221 216 212 212 213 214 220 231 242 226 166 215 235 216 228 242 245 246 252 255 255 250 241 249 262 267 270 269 259 259 270 239 177 225 253 253 253 260 261 261 264 265 262 259 257 258 261 261 257 252 250 251 255 260 260 250 246
249 251 251 253 258 259 253 248 248 252 252 245 231 222 221 220 216 208 198 184 164 204 225 244 251 197 198 223 226 210 204 205 201 204 211 214 216 221 224 222 210 200 202 208 218 233 243 245 247 250 256 261 258 258 263 266 269 270 261 257 259 248 237 246 253 250 253 256 253 253 259 263 265 267 268 271 271 267 262 260 260 258 259 259 256 249 241
252 251 250 250 252 255 254 251 248 251 254 248 234 228 226 222 218 216 210 201 198 281 242 222 295 287 223 232 226 210 204 199 194 197 203 205 209 212 213 214 217 215 213 215 215 222 233 240 242 243 251 264 261 255 259 264 264 263 260 254 247 243 246 248 244 244 252 257 255 255 262 269 273 276 275 277 279 273 266 265 267 267 264 258 253 251 248
255 253 252 251 249 249 252 252 250 251 254 247 233 227 228 226 221 219 215 210 214 244 360 250 268 296 262 229 203 199 199 196 195 201 201 196 199 205 209 211 214 215 216 220 228 236 239 240 244 251 252 248 250 256 261 262 259 258 256 254 250 247 247 245 243 247 256 261 261 262 266 269 272 274 274 275 276 273 270 269 270 269 263 256 253 252 254
256 253 254 253 248 246 247 249 250 252 248 236 221 214 226 228 222 221 218 214 213 217 253 248 240 273 321 260 198 185 182 185 196 205 205 199 196 198 203 206 208 210 214 218 225 236 246 244 242 248 246 235 242 261 261 259 265 267 261 254 254 255 253 250 249 250 254 258 260 262 266 269 270 271 273 272 271 270 267 265 267 267 262 260 258 253 252
254 251 252 254 251 247 245 246 250 254 242 218 195 187 229 223 219 224 221 213 207 205 207 234 235 320 331 242 217 195 180 175 183 197 204 206 203 199 201 203 201 203 207 216 226 232 243 245 238 238 234 221 224 252 260 261 270 271 262 250 249 255 259 258 255 251 248 251 257 261 264 267 266 264 264 264 264 263 258 256 259 258 253 255 259 259 258
253 251 252 252 249 246 244 244 247 250 236 215 201 203 207 137 178 222 213 204 198 194 129 160 218 263 260 214 217 201 182 172 171 183 195 199 198 196 199 203 208 210 211 220 231 234 238 241 241 247 242 216 206 243 259 252 252 258 259 250 249 255 260 262 259 253 245 242 247 256 259 258 254 254 258 261 264 265 262 257 258 256 250 249 253 255 254
252 251 253 254 252 247 244 244 247 249 239 225 219 218 206 154 66 188 190 187 185 179 167 188 215 228 227 287 187 176 168 161 168 185 192 191 185 184 195 204 211 213 209 211 222 230 231 232 237 247 249 232 220 244 254 245 245 254 264 267 260 260 260 258 258 257 250 240 234 239 248 253 256 260 262 261 260 263 265 262 262 261 252 245 246 248 246
250 252 256 262 262 253 246 246 246 243 234 224 221 221 214 210 232 183 177 172 160 116 174 184 213 206 199 337 262 183 179 180 189 193 194 190 182 182 195 203 205 210 209 210 220 231 234 238 242 244 245 239 232 240 249 250 251 257 264 262 259 258 257 255 255 256 251 242 235 235 241 252 261 266 266 261 254 254 258 258 256 255 250 245 247 249 247
251 253 257 265 269 261 254 250 242 231 221 213 213 218 217 220 228 203 180 169 151 44 195 188 209 196 186 210 219 185 186 196 197 187 186 183 182 191 197 191 198 212 210 204 217 234 236 235 238 240 242 240 233 233 245 254 256 255 256 258 257 255 252 250 251 250 243 239 240 240 242 248 255 258 260 260 257 256 257 254 249 249 250 250 250 249 247
253 252 256 268 270 259 248 239 230 220 209 198 197 206 213 218 221 208 191 183 184 218 182 181 206 198 192 208 202 167 174 188 182 168 167 156 169 194 201 194 199 210 202 196 218 235 232 221 226 237 240 238 234 233 240 253 258 258 259 261 261 257 254 253 256 257 252 247 248 248 247 249 251 252 254 257 257 257 257 254 250 249 250 252 253 252 249
253 252 256 267 266 250 231 222 218 213 199 181 177 182 189 193 196 197 194 195 212 230 181 192 215 203 198 212 193 154 172 186 171 160 173 172 166 181 198 209 208 194 183 207 223 232 230 218 223 236 239 240 244 245 245 250 258 262 264 266 266 264 261 261 262 262 261 257 254 252 250 249 249 248 251 253 252 251 252 251 250 250 251 252 253 251 249
253 256 256 256 249 232 223 211 198 189 179 169 162 157 160 162 165 186 193 196 213 212 196 212 214 197 195 208 186 164 179 186 171 170 183 181 171 171 190 211 207 173 190 221 219 220 231 225 222 239 248 251 255 255 252 252 258 262 263 266 270 269 267 266 263 260 259 257 255 252 249 248 247 246 248 250 250 249 250 250 249 250 251 251 251 250 248
250 255 253 241 225 214 207 178 168 162 161 163 159 148 147 163 159 174 184 191 207 198 197 210 204 190 187 189 180 178 190 171 167 182 189 182 187 190 188 199 195 181 223 234 204 189 223 229 213 235 253 255 254 255 253 250 252 256 256 258 263 268 269 268 262 256 253 253 254 253 250 249 250 250 249 250 251 251 251 251 249 248 249 249 249 248 245
236 236 236 231 221 178 143 157 161 156 150 153 157 129 134 192 193 174 168 186 208 209 204 205 198 192 192 189 179 182 195 174 170 185 185 176 198 203 182 187 187 187 223 231 191 180 233 244 225 234 252 255 253 254 248 237 239 246 250 252 258 265 270 269 262 254 250 250 250 251 252 253 255 256 256 255 255 254 253 250 245 243 243 244 245 244 242
214 215 226 229 192 157 151 156 159 152 137 135 160 136 154 190 200 183 178 193 205 210 199 189 185 188 196 197 188 178 183 187 167 189 179 168 171 194 185 182 179 201 226 221 182 185 236 248 242 247 254 255 255 255 242 235 244 254 256 257 262 268 273 273 266 257 251 249 249 249 251 253 254 254 255 255 254 254 254 253 247 241 238 237 238 238 238
209 216 227 212 175 160 159 163 165 145 113 152 158 160 184 191 179 184 203 211 209 201 187 188 190 185 183 185 184 163 164 170 140 182 193 183 169 193 200 187 183 219 227 209 172 195 227 238 246 251 252 254 259 258 248 246 257 267 268 271 274 274 274 273 269 261 254 250 249 250 250 250 251 252 252 252 251 250 251 251 250 245 240 237 235 235 235
223 229 230 206 175 164 170 189 206 161 154 169 166 172 187 193 188 197 211 213 203 192 180 178 179 168 156 156 136 62 87 164 162 171 189 177 147 184 211 204 198 211 211 183 192 218 224 231 243 250 254 258 254 243 235 243 262 273 278 280 280 276 272 269 267 266 261 254 251 251 251 251 252 252 251 249 248 249 249 249 249 248 246 241 235 232 231
222 229 231 209 178 179 189 198 192 176 179 187 180 177 187 195 196 199 201 195 188 183 172 167 170 170 160 148 135 124 143 184 188 164 167 161 151 182 203 207 198 181 173 192 218 225 229 238 244 250 258 262 250 241 247 264 275 281 285 285 283 279 274 267 262 261 260 256 251 250 249 250 253 253 251 247 245 245 248 250 248 246 245 241 237 232 228
208 216 216 203 199 197 187 180 185 191 192 187 181 188 198 200 198 198 197 184 168 168 170 173 175 170 155 134 128 153 164 165 168 169 167 173 189 199 203 205 198 191 205 225 228 225 234 243 245 245 249 253 253 253 260 268 273 278 283 285 284 281 278 271 264 260 258 255 250 245 244 248 253 254 253 250 246 244 247 250 250 245 240 237 236 233 226
197 195 203 212 210 197 189 188 188 192 195 195 194 197 203 207 207 198 178 162 163 170 174 175 169 157 149 142 139 157 157 156 166 173 168 174 196 203 196 198 205 205 214 225 225 225 235 243 245 243 245 248 250 248 248 253 263 271 276 282 285 283 282 279 274 269 266 264 260 255 253 257 259 260 261 261 256 249 245 245 246 244 239 234 233 231 225
207 186 196 223 219 191 195 211 209 203 202 198 195 196 203 215 219 200 170 167 171 161 151 142 125 119 128 137 139 149 156 158 165 174 174 180 196 194 186 203 218 213 208 216 221 226 234 243 247 244 240 239 238 237 238 244 253 263 272 279 280 278 279 280 278 275 274 273 270 266 263 264 265 265 267 268 264 257 250 243 240 238 234 233 233 231 225
192 175 198 220 208 183 194 209 219 223 215 202 195 192 190 201 209 197 175 170 167 151 141 136 125 114 119 154 166 160 164 166 168 174 181 191 196 191 190 209 219 215 212 218 223 226 233 243 249 240 227 225 230 238 241 241 244 256 270 276 273 273 277 278 278 281 281 278 274 271 269 271 273 273 272 271 269 265 258 247 236 230 227 229 230 228 222
176 189 226 225 211 205 205 204 209 218 214 197 188 186 184 191 201 193 166 146 143 139 136 136 133 128 135 157 161 159 172 179 171 167 183 198 203 198 200 213 217 216 215 219 225 230 237 243 240 222 212 218 231 236 236 237 241 252 267 272 270 270 273 272 275 282 283 278 273 269 266 268 271 273 275 276 276 274 266 252 236 228 225 224 225 224 221
187 218 241 208 198 201 194 194 206 215 210 195 189 191 193 195 194 178 148 128 123 115 98 82 94 114 126 144 160 174 189 193 180 178 193 202 204 205 214 222 223 217 208 211 221 230 235 234 223 217 223 234 236 232 232 235 237 243 258 268 268 266 266 266 268 273 274 273 270 266 262 260 262 269 278 285 284 282 276 261 244 235 230 225 221 220 221
193 230 243 222 213 202 184 190 208 216 210 204 202 199 198 198 188 166 142 131 133 136 137 139 124 115 136 171 180 171 166 172 186 202 209 209 206 210 220 226 226 217 211 215 220 227 232 230 224 226 235 237 231 228 232 237 239 246 259 268 267 266 265 264 261 261 262 263 262 258 253 251 253 261 275 283 281 280 276 265 253 245 237 227 220 217 217
190 213 222 221 222 220 207 208 219 222 216 214 212 205 199 196 175 145 133 136 147 156 160 155 142 145 170 181 169 140 136 163 197 217 221 218 213 216 224 228 225 218 221 224 222 221 226 226 219 218 227 233 231 230 234 239 245 255 265 269 266 263 262 259 256 257 257 257 256 252 247 244 245 249 256 263 264 263 269 273 268 256 242 234 230 226 223